Location: Melbourne
(37.8170°S, 144.9670°E)
Time: 15:05:31
(UTC+10:00)

CZ-3 R/B - Visible Passes

Search period start: 26 July 2014 00:00
Search period end: 05 August 2014 00:00
Orbit: 217 x 15128 km, 28.5° (Epoch: 24 July)

Date Brightness Start Highest point End Pass type
(mag) Time Alt. Az. Time Alt. Az. Time Alt. Az.
26 Jul 7.1 01:07:52 10° ENE 01:43:06 12° ENE 02:12:09 10° E visible
26 Jul 7.0 04:58:56 10° NW 07:23:08 63° NNE 08:04:36 10° E visible
27 Jul 6.9 03:51:29 10° NNW 06:05:04 55° NE 07:00:13 10° E visible
28 Jul 6.8 02:47:16 10° N 04:47:35 46° NE 05:53:58 10° E visible
29 Jul 6.7 01:46:31 10° N 03:32:56 35° ENE 04:44:33 10° E visible
29 Jul 6.2 06:59:10 10° WNW 09:25:48 72° N 09:49:12 10° E visible
30 Jul 6.7 00:52:30 10° NNE 02:21:40 23° ENE 03:28:34 10° E visible
30 Jul 6.7 05:42:19 10° NW 08:11:53 70° NNE 08:45:49 10° E visible
31 Jul 6.9 00:34:12 10° ENE 01:13:42 12° ENE 01:46:58 10° E visible
31 Jul 6.9 04:31:15 10° NW 06:53:08 65° NNE 07:41:26 10° E visible
01 Aug 6.7 03:23:53 10° NNW 05:32:07 57° NE 06:35:39 10° E visible
02 Aug 6.6 02:19:22 10° N 04:12:57 47° NE 05:27:46 10° E visible
03 Aug 6.5 01:17:57 10° N 02:57:31 35° ENE 04:16:18 10° E visible
03 Aug 6.5 06:24:43 10° WNW 08:55:41 73° N 09:23:22 10° E visible
04 Aug 6.5 00:22:51 10° NNE 01:45:55 23° ENE 02:57:16 10° E visible
04 Aug 6.9 05:09:32 10° NW 07:38:00 71° NNE 08:18:44 10° E visible
